FW5778 Weather Reports


time (UTC)temp
F
wind
direction
speed
knots
gust
knots
rain 1hr
in
rain 24hr
in
rain mn
in
humidity
%
barometer
mb
20210723150034 75 121 0.0 3.5 0.00 0.43 0.00 62 1022.8
20210723145540 75 139 0.9 5.2 0.00 0.43 0.00 62 1022.8
20210723145034 75 148 2.6 5.2 0.00 0.43 0.00 61 1022.9
20210723144549 75 153 0.9 4.3 0.00 0.43 0.00 63 1022.8
20210723144059 75 158 0.9 4.3 0.00 0.43 0.00 63 1022.8
20210723143528 75 155 2.6 4.3 0.00 0.43 0.00 62 1022.8
20210723143028 74 150 1.7 3.5 0.00 0.43 0.00 64 1022.8
20210723142525 74 148 0.9 2.6 0.00 0.43 0.00 67 1022.8
20210723142045 73 131 0.9 3.5 0.00 0.43 0.00 68 1022.7
20210723141537 73 133 0.9 3.5 0.00 0.43 0.00 68 1022.6
20210723141022 73 142 0.0 2.6 0.00 0.43 0.00 69 1022.7
20210723140537 72 119 0.0 2.6 0.00 0.43 0.00 69 1022.6
20210723140103 72 127 0.0 1.7 0.00 0.43 0.00 71 1022.7
20210723135524 72 133 0.0 0.9 0.00 0.43 0.00 71 1022.6
20210723135019 72 132 0.0 1.7 0.00 0.43 0.00 71 1022.6
20210723134613 71 131 0.0 1.7 0.00 0.43 0.00 72 1022.5
20210723134017 71 146 0.0 3.5 0.00 0.43 0.00 72 1022.5
20210723133517 71 150 0.9 6.1 0.00 0.43 0.00 72 1022.6
20210723133042 71 135 0.9 7.8 0.00 0.43 0.00 73 1022.6
20210723132518 71 144 3.5 9.6 0.00 0.43 0.00 73 1022.5
20210723132015 71 184 4.3 9.6 0.00 0.43 0.00 73 1022.6
20210723131552 71 151 3.5 10.4 0.00 0.43 0.00 72 1022.5
20210723131021 71 160 5.2 10.4 0.00 0.43 0.00 72 1022.5
20210723130514 71 154 4.3 9.6 0.00 0.43 0.00 73 1022.5
20210723130018 71 193 3.5 8.7 0.00 0.43 0.00 73 1022.5
20210723125517 70 165 2.6 7.0 0.00 0.43 0.00 73 1022.4
20210723125013 70 166 2.6 7.0 0.00 0.43 0.00 72 1022.3
20210723124529 70 160 0.9 4.3 0.00 0.43 0.00 70 1022.2
20210723124011 70 158 1.7 4.3 0.00 0.43 0.00 69 1022.2
20210723123516 70 187 0.9 4.3 0.00 0.43 0.00 70 1022.1
20210723123012 69 256 0.9 1.7 0.00 0.43 0.00 70 1022.0
20210723122514 69 177 0.0 0.9 0.00 0.43 0.00 70 1022.0
20210723122011 69 153 0.0 0.0 0.00 0.43 0.00 69 1021.8
20210723121523 69 153 0.0 0.9 0.00 0.43 0.00 69 1021.7
20210723121011 69 153 0.0 1.7 0.00 0.43 0.00 69 1021.6
20210723120507 69 164 0.0 1.7 0.00 0.43 0.00 68 1021.6
20210723120044 69 196 0.0 1.7 0.00 0.43 0.00 68 1021.7
20210723115510 69 150 0.0 2.6 0.00 0.43 0.00 69 1021.6
20210723115006 69 212 0.9 2.6 0.00 0.43 0.00 69 1021.6
20210723114525 69 213 0.9 2.6 0.00 0.43 0.00 69 1021.7
20210723114006 69 240 0.9 2.6 0.00 0.43 0.00 69 1021.7
20210723113505 69 266 0.0 1.7 0.00 0.43 0.00 70 1021.7
20210723113008 69 226 0.0 1.7 0.00 0.43 0.00 70 1021.5
20210723112524 69 220 0.9 1.7 0.00 0.43 0.00 70 1021.4
20210723112005 69 219 0.0 1.7 0.00 0.43 0.00 70 1021.4
20210723111510 69 224 0.0 1.7 0.00 0.43 0.00 71 1021.3
20210723111004 69 224 0.0 1.7 0.00 0.43 0.00 71 1021.3
20210723110507 69 149 0.0 1.7 0.00 0.43 0.00 71 1021.3
20210723110004 69 212 0.0 2.6 0.00 0.43 0.00 71 1021.3
20210723105504 69 235 0.9 2.6 0.00 0.43 0.00 71 1021.4
20210723104503 69 167 0.0 4.3 0.00 0.43 0.00 72 1021.3
20210723104035 69 155 0.9 4.3 0.00 0.43 0.00 72 1021.3
20210723103503 69 167 0.9 2.6 0.00 0.43 0.00 71 1021.4
20210723103012 69 169 1.7 3.5 0.00 0.43 0.00 71 1021.5
20210723102506 69 166 0.9 4.3 0.00 0.43 0.00 70 1021.5
20210723102002 69 211 1.7 4.3 0.00 0.43 0.00 71 1021.5
20210723101502 69 166 0.0 3.5 0.00 0.43 0.00 71 1021.5
20210723101001 69 219 1.7 3.5 0.00 0.43 0.00 71 1021.5
20210723100233 69 235 0.9 4.3 0.00 0.43 0.00 72 1021.5
20210723095600 69 215 0.9 4.3 0.00 0.43 0.00 72 1021.4
20210723095100 69 210 1.7 4.3 0.00 0.43 0.00 73 1021.4
20210723094636 69 208 0.9 3.5 0.00 0.43 0.00 73 1021.4
20210723094100 69 191 0.9 3.5 0.00 0.43 0.00 73 1021.4
20210723093559 69 166 0.0 4.3 0.00 0.43 0.00 74 1021.5
20210723093259 69 230 1.7 3.5 0.00 0.43 0.00 75 1021.5
20210723092559 69 221 1.7 3.5 0.00 0.43 0.00 75 1021.4
20210723092107 69 222 1.7 3.5 0.00 0.43 0.00 75 1021.4
20210723091812 68 224 0.9 2.6 0.00 0.43 0.00 74 1021.5
20210723091058 68 212 0.0 4.3 0.00 0.43 0.00 75 1021.5
20210723090607 68 216 0.9 4.3 0.00 0.43 0.00 76 1021.6
20210723090145 68 230 0.0 2.6 0.00 0.43 0.00 77 1021.6
20210723085557 68 210 0.0 2.6 0.00 0.43 0.00 78 1021.5
20210723085102 68 181 0.0 1.7 0.00 0.43 0.00 78 1021.5
20210723084702 68 214 0.0 1.7 0.00 0.43 0.00 78 1021.5
20210723084100 68 221 0.0 1.7 0.00 0.43 0.00 78 1021.5
20210723083600 68 225 0.0 1.7 0.00 0.43 0.00 78 1021.5
20210723083213 68 151 0.0 1.7 0.00 0.43 0.00 78 1021.5
20210723082555 69 151 0.0 1.7 0.00 0.43 0.00 77 1021.4
20210723082105 69 145 0.0 1.7 0.00 0.43 0.00 76 1021.5
20210723081637 69 130 0.9 1.7 0.00 0.43 0.00 75 1021.5
20210723081053 69 146 0.0 0.9 0.00 0.43 0.00 74 1021.6
20210723080604 69 146 0.0 0.0 0.00 0.43 0.00 73 1021.6
20210723080130 69 146 0.0 1.7 0.00 0.43 0.00 73 1021.6
20210723075551 69 146 0.9 1.7 0.00 0.43 0.00 72 1021.5
20210723075050 69 150 0.9 1.7 0.00 0.43 0.00 72 1021.5
20210723074749 70 146 0.9 1.7 0.00 0.43 0.00 72 1021.5
20210723074056 70 217 0.0 1.7 0.00 0.43 0.00 72 1021.5
20210723073607 70 217 0.0 2.6 0.00 0.43 0.00 72 1021.5
20210723073122 70 213 0.9 2.6 0.00 0.43 0.00 72 1021.5
20210723072551 70 139 0.0 2.6 0.00 0.43 0.00 71 1021.5
20210723072048 70 213 0.9 2.6 0.00 0.43 0.00 71 1021.5
20210723071643 70 230 0.0 2.6 0.00 0.43 0.00 70 1021.6
20210723071047 70 221 0.0 3.5 0.00 0.43 0.00 70 1021.5
20210723070555 70 210 0.9 4.3 0.00 0.43 0.00 70 1021.5
20210723070111 70 175 0.9 4.3 0.00 0.43 0.00 70 1021.5
20210723065547 70 212 0.9 4.3 0.00 0.43 0.00 71 1021.7
20210723065059 70 230 0.9 2.6 0.00 0.43 0.00 72 1021.7
20210723064620 70 138 0.9 5.2 0.00 0.43 0.00 73 1021.7
20210723064118 70 222 2.6 5.2 0.00 0.43 0.00 74 1021.6
20210723063543 70 234 2.6 6.1 0.00 0.43 0.00 76 1021.5
20210723063104 70 223 2.6 5.2 0.00 0.43 0.00 78 1021.5
20210723062542 70 207 2.6 4.3 0.00 0.43 0.00 78 1021.5
20210723062041 70 215 0.9 2.6 0.00 0.43 0.00 77 1021.5
20210723061624 70 245 0.9 2.6 0.00 0.43 0.00 77 1021.5
20210723061040 71 229 1.7 2.6 0.00 0.43 0.00 76 1021.4
20210723060612 71 225 0.9 2.6 0.00 0.43 0.00 76 1021.4
20210723060225 71 246 0.9 3.5 0.00 0.43 0.43 76 1021.4
20210723055548 71 238 1.7 3.5 0.00 0.43 0.43 75 1021.3
20210723055046 71 238 1.7 3.5 0.00 0.43 0.43 75 1021.4
20210723054613 71 222 1.7 3.5 0.00 0.43 0.43 74 1021.5
20210723054037 71 205 0.0 1.7 0.00 0.43 0.43 74 1021.4
20210723053538 71 243 0.9 2.6 0.00 0.43 0.43 74 1021.5
20210723053232 71 253 0.9 2.6 0.00 0.43 0.43 75 1021.7
20210723052538 71 241 0.0 1.7 0.00 0.43 0.43 75 1021.7
20210723052036 71 201 0.0 0.9 0.00 0.43 0.43 75 1021.8
20210723051635 71 92 0.0 0.0 0.00 0.43 0.43 74 1022.0
20210723051041 71 92 0.0 0.0 0.00 0.43 0.43 73 1022.0
20210723050538 71 92 0.0 1.7 0.00 0.43 0.43 73 1022.0
20210723050132 71 92 0.0 1.7 0.00 0.43 0.43 73 1022.0
20210723045536 71 103 0.0 3.5 0.00 0.43 0.43 73 1022.1
20210723045036 72 44 0.0 3.5 0.00 0.43 0.43 73 1022.1
20210723044611 72 61 0.0 2.6 0.00 0.43 0.43 73 1022.1
20210723044047 72 84 0.0 2.6 0.00 0.43 0.43 71 1022.1
20210723043552 73 94 0.0 2.6 0.00 0.43 0.43 69 1022.2
20210723043129 73 94 0.0 4.3 0.00 0.43 0.43 67 1022.1
20210723042549 74 110 0.0 1.7 0.00 0.43 0.43 65 1022.2
20210723042036 74 356 0.0 2.6 0.00 0.43 0.43 61 1022.1
20210723041616 74 283 0.0 3.5 0.00 0.43 0.43 60 1022.0
20210723041034 74 277 0.0 3.5 0.00 0.43 0.43 61 1022.0
20210723040626 74 263 0.9 2.6 0.00 0.43 0.43 62 1022.1
20210723040042 74 208 0.0 2.6 0.00 0.43 0.43 61 1022.1
20210723035535 74 250 0.9 3.5 0.00 0.43 0.43 60 1022.2
20210723035058 74 236 0.0 4.3 0.00 0.43 0.43 62 1022.0
20210723034547 74 220 2.6 5.2 0.00 0.43 0.43 62 1021.9
20210723034037 74 205 2.6 6.1 0.00 0.43 0.43 63 1021.9
20210723033538 73 236 1.7 7.8 0.00 0.43 0.43 67 1021.8
20210723033050 73 230 3.5 7.8 0.00 0.43 0.43 67 1021.7
20210723032530 73 144 2.6 7.0 0.01 0.43 0.43 67 1021.7
20210723032033 74 138 1.7 7.8 0.01 0.43 0.43 64 1021.7
20210723031539 74 197 4.3 9.6 0.01 0.43 0.43 62 1021.5
20210723031039 73 160 2.6 7.8 0.01 0.43 0.43 63 1021.5
20210723030534 73 236 0.0 7.0 0.01 0.43 0.43 66 1021.5
20210723030115 73 207 1.7 9.6 0.01 0.43 0.43 66 1021.5
20210723025542 72 160 6.1 9.6 0.02 0.43 0.43 67 1021.2
20210723025028 71 207 3.5 10.4 0.09 0.43 0.43 77 1021.2
20210723024554 70 298 4.3 10.4 0.13 0.43 0.43 79 1021.3
20210723024032 70 288 4.3 7.0 0.13 0.43 0.43 80 1020.9
20210723023533 70 228 1.7 6.1 0.13 0.43 0.43 79 1020.2
20210723023049 70 160 3.5 6.1 0.15 0.43 0.43 78 1019.6
20210723022523 70 161 0.9 6.1 0.15 0.42 0.42 78 1019.6
20210723022036 70 166 2.6 10.4 0.15 0.42 0.42 78 1019.6
20210723021639 70 139 2.6 10.4 0.20 0.42 0.42 78 1019.4
20210723021023 69 121 1.7 9.6 0.28 0.42 0.42 78 1019.4
20210723020521 70 153 4.3 10.4 0.34 0.42 0.42 76 1019.7
20210723020023 70 164 5.2 11.3 0.36 0.42 0.42 75 1019.5
20210723015519 71 116 5.2 7.8 0.37 0.41 0.41 75 1019.6
20210723015022 72 141 4.3 7.8 0.28 0.33 0.33 72 1019.8
20210723014057 72 135 2.6 7.8 0.26 0.30 0.30 67 1019.5
20210723013548 72 95 2.6 7.8 0.26 0.30 0.30 65 1019.4
20210723013145 73 41 0.9 5.2 0.26 0.30 0.30 62 1018.7
20210723012547 74 326 1.7 5.2 0.23 0.27 0.27 59 1018.5
20210723012058 74 93 1.7 13.0 0.23 0.27 0.27 53 1018.4
20210723011646 75 23 5.2 22.6 0.21 0.25 0.25 48 1018.3
20210723011043 75 253 12.2 22.6 0.13 0.17 0.17 56 1018.6
20210723010542 75 153 13.0 18.2 0.09 0.13 0.13 58 1018.8
20210723010124 77 11 6.1 18.2 0.03 0.07 0.07 56 1017.6
20210723005545 81 334 11.3 18.2 0.01 0.05 0.05 45 1017.5
20210723005040 88 320 5.2 10.4 0.00 0.04 0.04 36 1017.2
20210723004649 90 300 1.7 4.3 0.00 0.04 0.04 30 1016.7
20210723004040 90 202 0.9 2.6 0.00 0.04 0.04 30 1016.2
20210723003542 91 124 0.0 1.7 0.00 0.04 0.04 31 1016.1
20210723003154 91 127 0.0 2.6 0.00 0.04 0.04 30 1016.2
20210723002604 91 168 0.9 4.3 0.00 0.04 0.04 29 1016.2
20210723002039 91 198 1.7 4.3 0.00 0.04 0.04 29 1016.2
20210723001729 92 161 0.0 4.3 0.00 0.04 0.04 29 1016.2
20210723001038 92 91 1.7 3.5 0.00 0.04 0.04 29 1016.3
20210723000612 92 99 0.0 0.9 0.00 0.04 0.04 30 1016.2
20210723000107 92 99 0.0 0.9 0.00 0.04 0.04 28 1016.1
20210722235547 92 23 0.0 2.6 0.00 0.04 0.04 30 1016.2
20210722235107 93 46 0.9 2.6 0.00 0.04 0.04 29 1016.3
20210722234613 93 40 0.0 1.7 0.00 0.04 0.04 27 1016.3
20210722234037 93 40 0.0 1.7 0.00 0.04 0.04 27 1016.3
20210722233538 93 54 0.9 3.5 0.00 0.04 0.04 27 1016.3
20210722233102 94 37 1.7 3.5 0.00 0.04 0.04 27 1016.2
20210722232546 94 61 0.0 1.7 0.00 0.04 0.04 27 1016.3
20210722232035 93 214 0.0 1.7 0.00 0.04 0.04 27 1016.2
20210722231622 94 210 0.9 1.7 0.00 0.04 0.04 26 1016.2
20210722231036 93 220 0.0 2.6 0.00 0.04 0.04 29 1016.2
20210722230539 93 221 0.9 2.6 0.01 0.04 0.04 28 1016.3
20210722230107 92 94 0.0 0.9 0.01 0.04 0.04 31 1016.3
20210722225534 91 94 0.0 2.6 0.02 0.04 0.04 31 1016.4
20210722225033 90 94 0.0 2.6 0.04 0.04 0.04 31 1016.4
20210722224618 90 100 0.0 3.5 0.04 0.04 0.04 29 1016.5
20210722224033 90 325 0.0 3.5 0.04 0.04 0.04 34 1016.5
20210722223529 89 56 0.0 3.5 0.04 0.04 0.04 33 1016.6
20210722223033 88 36 0.9 3.5 0.04 0.04 0.04 33 1016.7
20210722222531 87 12 0.9 2.6 0.04 0.04 0.04 40 1016.8
20210722222052 86 11 0.9 2.6 0.04 0.04 0.04 38 1016.9
20210722221536 85 250 0.0 3.5 0.04 0.04 0.04 44 1017.1
20210722221035 85 303 1.7 7.0 0.04 0.04 0.04 39 1017.3
20210722220523 85 293 2.6 9.6 0.03 0.03 0.03 42 1017.5
20210722220025 86 293 3.5 6.1 0.02 0.02 0.02 43 1017.5
20210722215528 89 319 2.6 5.2 0.01 0.01 0.01 38 1017.5
20210722215022 91 33 0.9 3.5 0.00 0.00 0.00 33 1017.5
20210722214602 91 82 1.7 3.5 0.00 0.00 0.00 30 1017.4
20210722214028 91 124 0.0 2.6 0.00 0.00 0.00 29 1017.5
20210722213523 92 103 0.9 6.1 0.00 0.00 0.00 28 1017.5
20210722213050 92 174 0.9 6.1 0.00 0.00 0.00 28 1017.6
20210722212519 92 128 0.0 7.8 0.00 0.00 0.00 29 1017.6
20210722212028 92 75 1.7 7.8 0.00 0.00 0.00 28 1017.6
20210722211541 93 128 2.6 7.8 0.00 0.00 0.00 29 1017.7
20210722211019 93 150 4.3 8.7 0.00 0.00 0.00 28 1017.7
20210722210516 93 277 3.5 7.8 0.00 0.00 0.00 28 1017.7
20210722210028 93 100 0.9 5.2 0.00 0.00 0.00 29 1017.8
20210722205517 93 53 1.7 7.8 0.00 0.00 0.00 28 1017.9
20210722205014 92 117 4.3 7.8 0.00 0.00 0.00 28 1018.1
20210722204540 92 150 2.6 7.0 0.00 0.00 0.00 29 1018.1
20210722204011 92 245 3.5 7.0 0.00 0.00 0.00 30 1018.2
20210722203509 92 171 1.7 7.8 0.00 0.00 0.00 32 1018.3
20210722203012 91 147 2.6 8.7 0.00 0.00 0.00 30 1018.4
20210722202509 91 143 4.3 8.7 0.00 0.00 0.00 30 1018.5
20210722202006 91 149 2.6 7.8 0.00 0.00 0.00 31 1018.6
20210722201508 91 121 2.6 8.7 0.00 0.00 0.00 30 1018.6
20210722201009 91 93 2.6 10.4 0.00 0.00 0.00 30 1018.8
20210722200505 91 135 0.9 7.8 0.00 0.00 0.00 32 1018.9
20210722200008 91 166 4.3 8.7 0.00 0.00 0.00 30 1018.9
20210722195505 90 133 4.3 12.2 0.00 0.00 0.00 31 1018.9
20210722195008 90 105 5.2 12.2 0.00 0.00 0.00 30 1019.0
20210722194501 90 103 2.6 7.8 0.00 0.00 0.00 32 1019.0
20210722194100 89 106 1.7 7.8 0.00 0.00 0.00 34 1019.0
20210722193559 89 94 2.6 9.6 0.00 0.00 0.00 32 1019.1
20210722193230 89 129 4.3 10.4 0.00 0.00 0.00 33 1019.1
20210722192558 90 121 4.3 10.4 0.00 0.00 0.00 31 1019.2
20210722192057 90 146 3.5 8.7 0.00 0.00 0.00 33 1019.3
20210722191706 89 111 3.5 9.6 0.00 0.00 0.00 32 1019.3
20210722191056 89 127 5.2 11.3 0.00 0.00 0.00 32 1019.4
20210722190600 89 123 6.1 11.3 0.00 0.00 0.00 33 1019.5
20210722190132 89 186 4.3 9.6 0.00 0.00 0.00 34 1019.5
20210722185554 88 172 4.3 8.7 0.00 0.00 0.00 34 1019.5
20210722185059 88 132 4.3 11.3 0.00 0.00 0.00 34 1019.6
20210722184654 88 143 4.3 10.4 0.00 0.00 0.00 34 1019.6
20210722184121 87 253 3.5 9.6 0.00 0.00 0.00 35 1019.7
20210722183617 87 130 4.3 13.0 0.00 0.00 0.00 35 1019.7
20210722183145 87 137 4.3 13.0 0.00 0.00 0.00 35 1019.7
20210722182550 87 105 5.2 13.0 0.00 0.00 0.00 36 1019.7
20210722182104 87 129 6.1 13.0 0.00 0.00 0.00 35 1019.7
20210722181616 87 181 5.2 12.2 0.00 0.00 0.00 36 1019.7
20210722181106 86 169 5.2 13.0 0.00 0.00 0.00 36 1019.7
20210722180604 86 131 7.0 13.0 0.00 0.00 0.00 36 1019.7
20210722180100 85 139 4.3 12.2 0.00 0.00 0.00 38 1019.8
20210722175544 85 146 5.2 11.3 0.00 0.00 0.00 38 1019.9
20210722175053 84 131 3.5 10.4 0.00 0.00 0.00 39 1019.9
20210722174604 84 110 6.1 11.3 0.00 0.00 0.00 38 1020.0
20210722174042 84 127 5.2 11.3 0.00 0.00 0.00 38 1019.9
20210722173609 84 137 5.2 12.2 0.00 0.00 0.00 38 1020.0
20210722173123 84 122 3.5 12.2 0.00 0.00 0.00 39 1020.0
20210722172541 85 130 3.5 11.3 0.00 0.00 0.00 38 1020.0
20210722172057 84 153 3.5 8.7 0.00 0.00 0.00 39 1020.0
20210722171655 83 156 3.5 10.4 0.00 0.00 0.00 40 1020.1
20210722171038 83 191 1.7 11.3 0.00 0.00 0.00 41 1020.1
20210722170542 83 124 5.2 12.2 0.00 0.00 0.00 40 1020.1
20210722170118 83 170 7.0 12.2 0.00 0.00 0.00 39 1020.0
20210722165538 83 145 6.1 11.3 0.00 0.00 0.00 41 1020.1
20210722165032 82 115 6.1 14.8 0.00 0.00 0.00 41 1020.1
20210722164604 82 161 7.8 14.8 0.00 0.00 0.00 41 1020.1
20210722164030 82 149 7.8 13.0 0.00 0.00 0.00 42 1020.2
20210722163530 81 207 2.6 12.2 0.00 0.00 0.00 45 1020.2
20210722163149 81 207 5.2 13.0 0.00 0.00 0.00 45 1020.2
20210722162529 81 167 5.2 13.0 0.00 0.00 0.00 45 1020.2
20210722162029 81 158 6.1 12.2 0.00 0.00 0.00 44 1020.3
20210722161544 81 141 7.0 12.2 0.00 0.00 0.00 44 1020.2
20210722161037 81 163 5.2 11.3 0.00 0.00 0.00 45 1020.1
20210722160526 81 167 4.3 13.0 0.00 0.00 0.00 46 1020.2
20210722160100 81 167 7.0 13.0 0.00 0.00 0.00 44 1020.2
20210722155525 81 120 5.2 12.2 0.00 0.00 0.00 44 1020.1
20210722155035 80 130 6.1 13.0 0.00 0.00 0.00 46 1020.2
20210722154559 80 131 7.0 15.6 0.00 0.00 0.00 46 1020.2
20210722154023 81 136 6.1 15.6 0.00 0.00 0.00 46 1020.1
20210722153526 80 129 6.1 13.9 0.00 0.00 0.00 46 1020.1
20210722153049 80 134 6.1 12.2 0.00 0.00 0.00 46 1020.1
20210722152521 80 150 5.2 12.2 0.00 0.00 0.00 48 1020.0
20210722152020 80 188 5.2 13.0 0.00 0.00 0.00 48 1019.9
20210722151540 80 141 8.7 13.0 0.00 0.00 0.00 48 1019.9
20210722151019 80 150 4.3 10.4 0.00 0.00 0.00 49 1019.9
20210722150519 80 164 5.2 10.4 0.00 0.00 0.00 49 1019.9